�������l�o���
Date,Time,MP-1(��Sv/h),MP-2(��Sv/h),MP-3(��Sv/h),MP-4(��Sv/h),MP-5(��Sv/h),MP-6(��Sv/h),MP-7(��Sv/h),MP-8(��Sv/h),����,����(m/s),���J
2020/06/03,00:00,0.702,0.999,0.648,1.219,0.870,0.405,0.682,0.641,��,5.5,�L
2020/06/03,00:10,0.701,0.998,0.648,1.216,0.869,0.405,0.683,0.641,���k��,6.0,�L
2020/06/03,00:20,0.702,1.001,0.646,1.217,0.868,0.404,0.685,0.642,�k��,6.1,�L
2020/06/03,00:30,0.701,0.997,0.645,1.214,0.867,0.403,0.681,0.639,�k��,5.8,�L
2020/06/03,00:40,0.696,0.992,0.644,1.214,0.867,0.401,0.682,0.640,�k��,6.5,�L
2020/06/03,00:50,0.694,0.987,0.643,1.212,0.863,0.400,0.681,0.639,�k,9.6,�L
2020/06/03,01:00,0.693,0.986,0.640,1.211,0.861,0.401,0.681,0.638,�k,10.3,�L
2020/06/03,01:10,0.693,0.982,0.640,1.208,0.859,0.402,0.681,0.639,�k�k��,8.3,�L
2020/06/03,01:20,0.690,0.982,0.640,1.208,0.859,0.400,0.679,0.638,�k�k��,7.5,�L
2020/06/03,01:30,0.692,0.985,0.639,1.202,0.858,0.401,0.681,0.639,�k�k��,4.2,�L
2020/06/03,01:40,0.689,0.979,0.639,1.200,0.858,0.398,0.680,0.637,�k��,3.3,�L
2020/06/03,01:50,0.690,0.980,0.640,1.204,0.858,0.398,0.679,0.636,�k��,2.0,�L
2020/06/03,02:00,0.691,0.983,0.641,1.203,0.858,0.398,0.679,0.637,���k��,2.0,�L
2020/06/03,02:10,0.690,0.982,0.638,1.202,0.858,0.396,0.678,0.639,���k��,1.9,�L
2020/06/03,02:20,0.688,0.982,0.639,1.201,0.857,0.397,0.680,0.638,���k��,1.2,�L
2020/06/03,02:30,0.689,0.982,0.638,1.200,0.858,0.398,0.680,0.637,-,CALM,�L
2020/06/03,02:40,0.689,0.981,0.639,1.203,0.856,0.398,0.679,0.638,-,CALM,��
2020/06/03,02:50,0.688,0.980,0.639,1.199,0.856,0.397,0.678,0.642,���쐼,0.9,��
2020/06/03,03:00,0.688,0.981,0.637,1.200,0.857,0.396,0.679,0.639,�쐼,0.6,��
2020/06/03,03:10,0.686,0.983,0.638,1.200,0.856,0.396,0.682,0.640,��쐼,1.2,��
2020/06/03,03:20,0.686,0.982,0.637,1.198,0.857,0.394,0.680,0.641,��,1.7,��
2020/06/03,03:30,0.688,0.982,0.636,1.197,0.855,0.396,0.681,0.640,�쐼,1.5,��
2020/06/03,03:40,0.688,0.982,0.638,1.199,0.856,0.395,0.681,0.640,��,1.5,��
2020/06/03,03:50,0.688,0.982,0.636,1.198,0.855,0.395,0.681,0.639,���k��,2.3,��
2020/06/03,04:00,0.687,0.983,0.637,1.200,0.857,0.396,0.679,0.640,�k��,2.6,��
2020/06/03,04:10,0.688,0.983,0.637,1.197,0.857,0.395,0.680,0.639,���k��,3.0,��
2020/06/03,04:20,0.688,0.979,0.636,1.198,0.857,0.396,0.680,0.642,���k��,3.2,��
2020/06/03,04:30,0.688,0.982,0.638,1.201,0.857,0.396,0.681,0.640,�k��,2.3,��
2020/06/03,04:40,0.688,0.982,0.636,1.197,0.858,0.396,0.679,0.640,�k��,1.7,��
2020/06/03,04:50,0.687,0.980,0.637,1.199,0.856,0.395,0.680,0.640,�k�k��,0.9,��
2020/06/03,05:00,0.689,0.981,0.637,1.200,0.858,0.397,0.680,0.640,���k��,0.6,��
2020/06/03,05:10,0.689,0.983,0.637,1.198,0.857,0.395,0.682,0.639,���k��,1.1,��
2020/06/03,05:20,0.687,0.981,0.639,1.198,0.858,0.396,0.681,0.640,���쐼,1.2,�L
2020/06/03,05:30,0.689,0.984,0.635,1.200,0.858,0.397,0.680,0.640,���쐼,1.2,��
2020/06/03,05:40,0.687,0.983,0.638,1.200,0.858,0.396,0.681,0.641,���쐼,1.7,��
2020/06/03,05:50,0.687,0.984,0.638,1.200,0.857,0.397,0.681,0.642,���쐼,1.2,��
2020/06/03,06:00,0.688,0.985,0.638,1.199,0.859,0.396,0.683,0.642,���쐼,0.9,��
2020/06/03,06:10,0.688,0.984,0.637,1.200,0.858,0.396,0.682,0.641,���쐼,1.5,��
2020/06/03,06:20,0.688,0.984,0.639,1.199,0.857,0.396,0.683,0.642,�쐼,1.2,��
2020/06/03,06:30,0.686,0.984,0.637,1.200,0.860,0.396,0.683,0.641,��,1.1,��
2020/06/03,06:40,0.688,0.984,0.637,1.198,0.858,0.397,0.683,0.641,��쐼,0.6,��
2020/06/03,06:50,0.689,0.987,0.637,1.200,0.857,0.397,0.684,0.642,��,0.9,��
2020/06/03,07:00,0.690,0.983,0.637,1.200,0.858,0.397,0.684,0.642,��쓌,1.2,��
2020/06/03,07:10,0.687,0.986,0.638,1.199,0.857,0.396,0.684,0.642,��쓌,1.1,��
2020/06/03,07:20,0.688,0.986,0.637,1.199,0.857,0.396,0.683,0.641,��,1.2,��
2020/06/03,07:30,0.687,0.982,0.637,1.197,0.857,0.396,0.683,0.641,��쓌,1.4,��
2020/06/03,07:40,0.688,0.982,0.638,1.201,0.860,0.397,0.684,0.640,��쓌,1.7,��
2020/06/03,07:50,0.688,0.984,0.639,1.199,0.860,0.395,0.683,0.638,��쓌,1.4,��
2020/06/03,08:00,0.690,0.986,0.637,1.202,0.858,0.395,0.683,0.639,��쓌,0.9,��
2020/06/03,08:10,0.689,0.982,0.638,1.201,0.859,0.395,0.683,0.639,���k��,1.5,��
2020/06/03,08:20,0.688,0.984,0.637,1.203,0.858,0.394,0.681,0.639,���k��,2.0,��
2020/06/03,08:30,0.689,0.984,0.637,1.198,0.860,0.396,0.681,0.641,���k��,2.3,��
2020/06/03,08:40,0.692,0.982,0.638,1.204,0.859,0.397,0.683,0.640,�k��,2.3,��
2020/06/03,08:50,0.691,0.982,0.640,1.202,0.860,0.396,0.682,0.639,�k��,1.7,��
2020/06/03,09:00,0.691,0.982,0.639,1.202,0.860,0.396,0.682,0.639,��,2.0,��
2020/06/03,09:10,0.689,0.984,0.640,1.202,0.860,0.397,0.684,0.639,���쓌,1.4,��
2020/06/03,09:20,0.690,0.983,0.638,1.202,0.862,0.398,0.684,0.640,���쓌,2.3,��
2020/06/03,09:30,0.691,0.983,0.638,1.203,0.860,0.397,0.682,0.641,���쓌,3.6,��
2020/06/03,09:40,0.690,0.984,0.639,1.202,0.861,0.396,0.683,0.642,��,2.0,��
2020/06/03,09:50,0.690,0.984,0.640,1.203,0.862,0.397,0.685,0.641,���k��,3.3,��
2020/06/03,10:00,0.691,0.985,0.640,1.205,0.861,0.396,0.685,0.640,���k��,2.8,��
2020/06/03,10:10,0.693,0.987,0.640,1.204,0.862,0.398,0.684,0.641,���k��,2.3,��
2020/06/03,10:20,0.692,0.985,0.640,1.204,0.862,0.397,0.685,0.640,���k��,2.0,��
2020/06/03,10:30,0.693,0.990,0.641,1.203,0.862,0.397,0.687,0.642,��,2.0,��
2020/06/03,10:40,0.694,0.988,0.640,1.205,0.863,0.397,0.684,0.641,��,2.8,��
2020/06/03,10:50,0.693,0.987,0.636,1.203,0.864,0.397,0.685,0.641,���쓌,3.3,��
2020/06/03,11:00,0.694,0.987,0.637,1.206,0.866,0.397,0.685,0.642,���쓌,3.4,��
2020/06/03,11:10,0.694,0.991,0.635,1.206,0.864,0.395,0.686,0.641,�쓌,3.7,��
2020/06/03,11:20,0.694,0.989,0.637,1.205,0.867,0.397,0.687,0.641,���쓌,2.9,��
2020/06/03,11:30,0.694,0.989,0.635,1.203,0.866,0.396,0.687,0.641,�쓌,2.9,��
2020/06/03,11:40,0.696,0.990,0.637,1.202,0.865,0.396,0.686,0.643,���쓌,2.6,��
2020/06/03,11:50,0.696,0.992,0.637,1.201,0.865,0.397,0.685,0.642,�쓌,2.8,��
2020/06/03,12:00,0.696,0.993,0.637,1.204,0.867,0.397,0.686,0.642,�쓌,2.3,��
2020/06/03,12:10,0.695,0.995,0.635,1.206,0.869,0.396,0.688,0.644,���쓌,3.7,��
2020/06/03,12:20,0.697,0.996,0.638,1.206,0.869,0.396,0.687,0.642,�쓌,3.6,��
2020/06/03,12:30,0.696,0.997,0.638,1.203,0.869,0.397,0.686,0.641,��쓌,3.4,��
2020/06/03,12:40,0.698,0.997,0.636,1.207,0.872,0.398,0.688,0.644,�쓌,4.4,��
2020/06/03,12:50,0.697,0.997,0.637,1.205,0.871,0.398,0.687,0.643,�쓌,3.5,��
2020/06/03,13:00,0.698,0.997,0.637,1.207,0.870,0.399,0.687,0.643,�쓌,2.6,��
2020/06/03,13:10,0.696,0.999,0.630,1.207,0.872,0.397,0.687,0.642,�쓌,4.5,��
2020/06/03,13:20,0.697,0.997,0.631,1.207,0.870,0.399,0.686,0.641,�쓌,4.0,��
2020/06/03,13:30,0.697,0.998,0.632,1.206,0.871,0.398,0.688,0.642,�쓌,3.4,��
2020/06/03,13:40,0.696,0.996,0.631,1.209,0.870,0.398,0.688,0.642,�쓌,3.5,��
2020/06/03,13:50,0.697,0.998,0.633,1.207,0.873,0.398,0.687,0.642,�쓌,5.0,��
2020/06/03,14:00,0.699,0.999,0.632,1.209,0.874,0.398,0.689,0.643,��쓌,3.6,��
2020/06/03,14:10,0.698,1.000,0.634,1.208,0.874,0.398,0.688,0.643,��쓌,3.4,��
2020/06/03,14:20,0.699,0.997,0.634,1.207,0.875,0.399,0.688,0.645,�쓌,3.2,��
2020/06/03,14:30,0.699,0.998,0.632,1.209,0.874,0.397,0.686,0.643,�쓌,3.8,��
2020/06/03,14:40,0.700,1.000,0.633,1.211,0.873,0.399,0.688,0.642,�쓌,3.9,��
2020/06/03,14:50,0.699,1.002,0.636,1.208,0.875,0.399,0.689,0.643,��쓌,4.2,��
2020/06/03,15:00,0.699,1.000,0.641,1.209,0.874,0.398,0.687,0.644,�쓌,3.8,��
2020/06/03,15:10,0.699,1.001,0.642,1.210,0.874,0.400,0.689,0.644,�쓌,2.6,��
2020/06/03,15:20,0.698,1.004,0.639,1.211,0.873,0.401,0.689,0.644,�쓌,3.8,��
2020/06/03,15:30,0.698,1.006,0.640,1.210,0.875,0.400,0.688,0.642,�쓌,3.2,��
2020/06/03,15:40,0.699,1.004,0.638,1.210,0.875,0.399,0.688,0.643,�쓌,4.6,��
2020/06/03,15:50,0.700,1.003,0.639,1.209,0.874,0.401,0.688,0.642,�쓌,2.5,��
2020/06/03,16:00,0.699,1.005,0.638,1.209,0.873,0.400,0.688,0.644,���쓌,2.3,��
2020/06/03,16:10,0.699,1.004,0.640,1.211,0.876,0.399,0.689,0.643,���쓌,2.5,��
2020/06/03,16:20,0.699,1.006,0.637,1.214,0.875,0.400,0.689,0.643,�쓌,3.1,��
2020/06/03,16:30,0.699,1.005,0.637,1.212,0.875,0.402,0.689,0.642,�쓌,3.6,��
2020/06/03,16:40,0.698,1.007,0.638,1.212,0.876,0.400,0.688,0.642,��쓌,4.5,��
2020/06/03,16:50,0.698,1.004,0.638,1.209,0.875,0.401,0.688,0.643,��쓌,4.7,��
2020/06/03,17:00,0.697,1.007,0.638,1.209,0.876,0.400,0.687,0.644,��,3.7,��
2020/06/03,17:10,0.699,1.006,0.640,1.211,0.873,0.400,0.686,0.641,��쓌,3.5,��
2020/06/03,17:20,0.700,1.009,0.640,1.210,0.876,0.401,0.689,0.642,��쓌,4.0,��
2020/06/03,17:30,0.700,1.008,0.641,1.211,0.876,0.401,0.687,0.644,�쓌,3.6,��
2020/06/03,17:40,0.699,1.007,0.641,1.213,0.876,0.399,0.688,0.644,�쓌,2.9,��
2020/06/03,17:50,0.698,1.007,0.640,1.212,0.874,0.398,0.687,0.644,��쓌,3.2,��
2020/06/03,18:00,0.699,1.004,0.640,1.215,0.874,0.399,0.687,0.644,��쓌,3.3,��
2020/06/03,18:10,0.699,1.008,0.640,1.214,0.874,0.400,0.689,0.644,��쓌,4.0,��
2020/06/03,18:20,0.700,1.008,0.640,1.215,0.875,0.400,0.688,0.645,��쓌,3.6,��
2020/06/03,18:30,0.699,1.007,0.639,1.215,0.875,0.398,0.688,0.644,��쓌,4.2,��
2020/06/03,18:40,0.701,1.008,0.640,1.213,0.875,0.401,0.689,0.646,��,4.5,��
2020/06/03,18:50,0.700,1.006,0.641,1.216,0.875,0.399,0.689,0.646,��,4.2,��
2020/06/03,19:00,0.699,1.008,0.641,1.214,0.876,0.401,0.688,0.646,��,3.8,��
2020/06/03,19:10,0.700,1.008,0.642,1.214,0.876,0.400,0.689,0.647,��,3.9,��
2020/06/03,19:20,0.699,1.009,0.642,1.218,0.876,0.402,0.690,0.646,��,4.1,��
2020/06/03,19:30,0.701,1.009,0.641,1.215,0.876,0.402,0.689,0.644,��,3.5,��
2020/06/03,19:40,0.701,1.009,0.642,1.214,0.876,0.401,0.689,0.645,��,4.9,��
2020/06/03,19:50,0.702,1.007,0.643,1.215,0.876,0.403,0.690,0.646,��,4.9,��
2020/06/03,20:00,0.701,1.008,0.642,1.217,0.878,0.403,0.689,0.645,��,4.9,��
2020/06/03,20:10,0.701,1.010,0.643,1.215,0.879,0.402,0.690,0.645,��,4.8,��
2020/06/03,20:20,0.702,1.009,0.641,1.216,0.878,0.402,0.691,0.645,��,4.7,��
2020/06/03,20:30,0.699,1.008,0.643,1.215,0.877,0.402,0.690,0.647,��,4.6,��
2020/06/03,20:40,0.700,1.009,0.642,1.215,0.879,0.404,0.690,0.645,��,4.8,��
2020/06/03,20:50,0.702,1.011,0.643,1.217,0.878,0.402,0.689,0.645,��,5.7,��
2020/06/03,21:00,0.701,1.008,0.642,1.216,0.879,0.402,0.689,0.644,��쐼,5.5,��
2020/06/03,21:10,0.702,1.010,0.642,1.216,0.878,0.402,0.690,0.646,��쐼,5.1,��
2020/06/03,21:20,0.699,1.009,0.640,1.215,0.877,0.402,0.689,0.647,��쐼,4.2,��
2020/06/03,21:30,0.700,1.008,0.642,1.214,0.879,0.402,0.691,0.644,��,2.6,��
2020/06/03,21:40,0.701,1.008,0.641,1.217,0.878,0.403,0.690,0.646,��쓌,2.2,��
2020/06/03,21:50,0.699,1.009,0.642,1.216,0.878,0.404,0.690,0.646,��쓌,3.5,��
2020/06/03,22:00,0.700,1.009,0.641,1.216,0.878,0.401,0.691,0.646,��쓌,5.0,��
2020/06/03,22:10,0.701,1.009,0.641,1.216,0.879,0.402,0.689,0.645,��,4.4,��
2020/06/03,22:20,0.700,1.008,0.641,1.215,0.876,0.403,0.692,0.645,��,3.6,��
2020/06/03,22:30,0.701,1.007,0.642,1.215,0.878,0.404,0.691,0.647,��,3.2,��
2020/06/03,22:40,0.699,1.007,0.642,1.217,0.878,0.403,0.690,0.646,��,2.9,��
2020/06/03,22:50,0.701,1.009,0.640,1.214,0.877,0.402,0.690,0.648,��쐼,2.3,��
2020/06/03,23:00,0.700,1.010,0.642,1.216,0.877,0.404,0.691,0.645,��쐼,1.1,��
2020/06/03,23:10,0.701,1.007,0.644,1.214,0.876,0.403,0.689,0.647,�쐼,0.9,��
2020/06/03,23:20,0.702,1.009,0.642,1.215,0.878,0.402,0.690,0.646,���k��,1.1,��
2020/06/03,23:30,0.702,1.010,0.642,1.218,0.878,0.403,0.689,0.645,�k��,1.5,��
2020/06/03,23:40,0.700,1.008,0.643,1.214,0.878,0.403,0.689,0.648,�k�k��,2.6,��
2020/06/03,23:50,0.702,1.008,0.642,1.214,0.878,0.403,0.688,0.647,�k�k��,3.3,��
